| time (UTC) | temp F | wind direction | speed MPH | gust MPH | rain 1hr in | rain 24hr in | rain mn in | humidity % | barometer mb |
| 20260504201529 | 69 | 234 | 12.0 | 21.0 | 0.00 | 0.01 | 0.00 | 54 | 1005.7 |
| 20260504200016 | 69 | 186 | 10.0 | 19.0 | 0.00 | 0.01 | 0.00 | 57 | 1005.7 |
| 20260504194532 | 69 | 216 | 12.0 | 23.0 | 0.00 | 0.01 | 0.00 | 57 | 1006.0 |
| 20260504193023 | 68 | 206 | 12.0 | 20.0 | 0.00 | 0.01 | 0.00 | 57 | 1006.0 |
| 20260504191519 | 69 | 178 | 14.0 | 26.0 | 0.00 | 0.01 | 0.00 | 57 | 1006.2 |
| 20260504190131 | 69 | 240 | 13.0 | 26.0 | 0.00 | 0.01 | 0.00 | 57 | 1006.3 |
| 20260504184509 | 68 | 192 | 13.0 | 22.0 | 0.00 | 0.01 | 0.00 | 57 | 1006.5 |
| 20260504183008 | 69 | 221 | 11.0 | 23.0 | 0.00 | 0.01 | 0.00 | 57 | 1006.5 |
| 20260504181505 | 70 | 195 | 11.0 | 23.0 | 0.00 | 0.01 | 0.00 | 56 | 1006.2 |
| 20260504180214 | 70 | 193 | 15.0 | 26.0 | 0.00 | 0.01 | 0.00 | 54 | 1005.9 |
| 20260504174551 | 70 | 211 | 13.0 | 21.0 | 0.00 | 0.01 | 0.00 | 53 | 1005.8 |
| 20260504173108 | 70 | 216 | 15.0 | 20.0 | 0.00 | 0.01 | 0.00 | 55 | 1005.9 |
| 20260504171557 | 69 | 223 | 9.0 | 22.0 | 0.00 | 0.01 | 0.00 | 56 | 1006.1 |
| 20260504140132 | 58 | 171 | 9.0 | 17.0 | 0.00 | 0.01 | 0.00 | 64 | 1007.8 |
| 20260504120108 | 52 | 169 | 6.0 | 17.0 | 0.00 | 0.01 | 0.00 | 66 | 1008.3 |
| 20260504081600 | 0 | 0.0 | 0.0 | 0.00 | 0.01 | 0.00 | 1009.1 | ||
| 20260504080104 | 0 | 0.0 | 0.0 | 0.00 | 0.01 | 0.00 | 1009.3 | ||
| 20260504050142 | 53 | 157 | 5.0 | 13.0 | 0.00 | 0.01 | 0.00 | 57 | 1010.9 |
| 20260504044504 | 52 | 161 | 7.0 | 12.0 | 0.00 | 0.01 | 0.00 | 58 | 1011.1 |
| 20260504043007 | 52 | 163 | 7.0 | 9.0 | 0.00 | 0.01 | 0.00 | 60 | 1011.3 |
| 20260504041504 | 51 | 163 | 6.0 | 8.0 | 0.00 | 0.01 | 0.00 | 63 | 1011.5 |
| 20260504040109 | 50 | 149 | 6.0 | 9.0 | 0.00 | 0.01 | 0.00 | 67 | 1011.6 |
| 20260504034554 | 51 | 147 | 5.0 | 7.0 | 0.00 | 0.01 | 0.01 | 65 | 1011.8 |
| 20260504033058 | 51 | 131 | 4.0 | 7.0 | 0.00 | 0.01 | 0.01 | 65 | 1012.0 |
| 20260504031630 | 50 | 123 | 4.0 | 7.0 | 0.00 | 0.01 | 0.01 | 66 | 1012.1 |
| 20260504030106 | 50 | 135 | 3.0 | 7.0 | 0.00 | 0.01 | 0.01 | 68 | 1012.3 |
| 20260504024553 | 50 | 131 | 4.0 | 8.0 | 0.00 | 0.01 | 0.01 | 68 | 1012.4 |
| 20260504023054 | 50 | 147 | 4.0 | 8.0 | 0.00 | 0.01 | 0.01 | 69 | 1012.6 |
| 20260504021610 | 50 | 150 | 4.0 | 8.0 | 0.00 | 0.01 | 0.01 | 69 | 1012.5 |
| 20260504020105 | 49 | 154 | 3.0 | 8.0 | 0.00 | 0.01 | 0.01 | 70 | 1012.5 |
| 20260504014539 | 49 | 149 | 3.0 | 7.0 | 0.00 | 0.01 | 0.01 | 72 | 1012.5 |
| 20260504013041 | 48 | 145 | 1.0 | 4.0 | 0.00 | 0.01 | 0.01 | 74 | 1012.5 |
| 20260504011549 | 48 | 149 | 1.0 | 4.0 | 0.00 | 0.01 | 0.01 | 74 | 1012.6 |
| 20260504010046 | 48 | 138 | 1.0 | 5.0 | 0.00 | 0.01 | 0.01 | 75 | 1012.6 |
| 20260504004531 | 48 | 144 | 0.0 | 4.0 | 0.00 | 0.01 | 0.01 | 75 | 1012.7 |
| 20260504003031 | 48 | 143 | 0.0 | 3.0 | 0.00 | 0.01 | 0.01 | 74 | 1012.4 |
| 20260504001542 | 48 | 146 | 0.0 | 4.0 | 0.00 | 0.01 | 0.01 | 74 | 1012.5 |
| 20260504000018 | 48 | 121 | 1.0 | 5.0 | 0.00 | 0.01 | 0.01 | 75 | 1012.6 |
| 20260503234525 | 48 | 134 | 0.0 | 3.0 | 0.00 | 0.01 | 0.01 | 77 | 1012.6 |
| 20260503233024 | 48 | 138 | 1.0 | 5.0 | 0.00 | 0.01 | 0.01 | 77 | 1012.4 |
| 20260503231521 | 48 | 125 | 1.0 | 4.0 | 0.00 | 0.01 | 0.01 | 75 | 1012.8 |
| 20260503230128 | 48 | 131 | 1.0 | 4.0 | 0.00 | 0.01 | 0.01 | 76 | 1012.9 |
| 20260503224504 | 48 | 113 | 1.0 | 3.0 | 0.01 | 0.01 | 0.01 | 77 | 1013.4 |
| 20260503223012 | 48 | 120 | 0.0 | 2.0 | 0.01 | 0.01 | 0.01 | 77 | 1013.8 |
| 20260503221505 | 48 | 61 | 0.0 | 2.0 | 0.01 | 0.01 | 0.01 | 77 | 1014.4 |
| 20260503220107 | 48 | 60 | 2.0 | 3.0 | 0.01 | 0.01 | 0.01 | 75 | 1014.5 |
| 20260503214557 | 48 | 244 | 3.0 | 10.0 | 0.00 | 0.00 | 0.00 | 71 | 1015.1 |
| 20260503213130 | 49 | 237 | 10.0 | 16.0 | 0.00 | 0.00 | 0.00 | 67 | 1015.4 |
| 20260503211621 | 52 | 266 | 12.0 | 21.0 | 0.00 | 0.00 | 0.00 | 60 | 1015.1 |
| 20260503210055 | 55 | 217 | 14.0 | 21.0 | 0.00 | 0.00 | 0.00 | 48 | 1015.0 |
| 20260503204559 | 57 | 210 | 12.0 | 21.0 | 0.00 | 0.00 | 0.00 | 40 | 1014.3 |
| 20260503203043 | 57 | 232 | 11.0 | 17.0 | 0.00 | 0.00 | 0.00 | 38 | 1014.5 |